Temp
10 10 10 9 9 10 9 9 9 9 9 8 8 8 9 8 8 8 7 7 7 7 7 7 6 5 5 5 5 4 4 4 4 3 3 3 3 3 3 3 3 3 3
10 10 9 9 9 9 9 9 9 9 9 8 8 8 8 8 8 7 7 6 6 6 6 6 5 5 5 5 4 4 4 4 3 3 3 3 3 2 2 2 2 2 2
10 10 9 9 9 9 9 9 9 8 8 8 8 7 7 6 7 8 7 6 6 5 6 6 5 5 5 4 4 4 4 3 3 3 2 2 2 2 2 1 1 1 1
9 9 9 9 9 9 9 9 9 8 8 8 8 7 7 7 7 8 7 6 5 5 5 5 4 5 4 4 3 3 3 3 2 2 2 2 1 1 1 1 1 1 1
8 9 9 9 9 8 8 8 6 6 6 6 7 7 7 6 6 6 6 6 6 5 4 4 4 4 4 3 3 3 2 2 2 2 1 1 1 0 0 0 0 -0 -0
6 6 8 9 7 7 7 7 6 5 5 5 6 6 6 6 6 6 6 6 5 5 4 4 3 3 3 3 3 2 2 2 1 1 1 0 0 -0 -0 -1 -1 -1 -1
1 4 4 7 7 5 5 5 5 5 4 4 4 4 5 5 5 5 5 5 5 4 4 4 3 3 2 2 2 1 1 1 0 -0 -0 -1 -1 -1 -1 -2 -2 -2 -2
0 -0 1 2 4 5 3 4 4 3 2 3 3 4 3 2 3 4 4 3 3 2 2 2 2 2 2 1 -1 -0 -1 -1 -1 -1 -1 -1 -2 -2 -2 -3 -3 -3 -3
-2 -2 -2 -2 1 3 3 2 2 2 2 3 4 2 2 1 1 1 1 1 2 2 2 2 2 2 -0 -1 -1 -2 -4 -2 -2 -2 -2 -3 -3 -3 -3 -4 -5 -5 -6
-2 -2 -3 -3 -3 -2 -3 -1 1 2 1 1 1 2 3 1 1 1 0 1 1 1 1 2 2 1 1 0 -0 -4 -5 -5 -6 -3 -5 -5 -5 -5 -6 -6 -5 -5 -7
-3 -4 -4 -3 -3 -3 -3 -2 -2 -1 -0 0 1 1 1 -0 0 -0 -0 1 2 2 1 0 1 0 -0 -1 -1 -1 -2 -2 -5 -6 -6 -7 -7 -7 -6 -6 -6 -6 -6
-3 -3 -3 -3 -3 -3 -1 -2 -3 -2 -1 -1 0 -0 -1 -1 -0 0 -0 -1 -0 0 -0 -0 -1 -1 -0 -0 -1 -2 -2 -3 -4 -5 -6 -7 -8 -7 -7 -7 -6 -6 -6
-2 -3 -3 -3 -2 -3 -2 -3 -3 -3 -2 -3 -3 -1 -1 -1 -2 -2 -2 -1 -1 -1 -0 -1 -2 -1 -1 -1 -2 -3 -4 -4 -5 -6 -7 -8 -8 -7 -7 -7 -7 -6 -6
-3 -3 -3 -3 -3 -4 -4 -4 -4 -3 -3 -2 -1 -1 -1 -1 -1 -1 -1 -1 -1 -1 -1 -1 -3 -3 -3 -3 -4 -4 -5 -5 -7 -7 -9 -8 -8 -7 -7 -7 -7 -7 -7
-3 -3 -3 -4 -3 -3 -3 -4 -4 -4 -3 -3 -3 -2 -1 -1 -1 -0 -1 -1 -1 -1 -1 -2 -3 -4 -4 -4 -5 -5 -6 -6 -8 -8 -8 -8 -7 -8 -8 -8 -8 -8 -8
-4 -3 -3 -4 -4 -4 -4 -4 -4 -4 -4 -3 -2 -4 -2 0 -0 -1 -2 -2 -2 -2 -2 -2 -3 -4 -4 -4 -5 -6 -6 -7 -7 -7 -8 -8 -8 -8 -9 -9 -8 -8 -8
-4 -4 -4 -4 -4 -4 -4 -5 -5 -5 -5 -5 -4 -4 -4 -4 -4 -4 -4 -4 -4 -3 -3 -3 -3 -4 -5 -5 -6 -6 -7 -7 -8 -8 -8 -8 -9 -9 -9 -9 -9 -9 -10
-5 -5 -5 -5 -4 -4 -5 -5 -6 -5 -5 -5 -5 -5 -5 -5 -5 -4 -4 -4 -4 -4 -4 -4 -4 -5 -5 -6 -7 -7 -8 -8 -8 -8 -9 -9 -9 -9 -10 -10 -10 -10 -10
-6 -6 -6 -6 -6 -6 -6 -6 -6 -5 -5 -4 -5 -5 -5 -5 -5 -4 -4 -4 -4 -4 -5 -5 -5 -7 -7 -8 -8 -8 -8 -8 -9 -9 -10 -10 -10 -10 -10 -10 -10 -11 -11
-7 -7 -7 -7 -6 -6 -7 -7 -6 -6 -5 -5 -5 -5 -5 -5 -6 -6 -6 -5 -5 -5 -5 -5 -6 -8 -8 -9 -9 -9 -9 -10 -10 -10 -10 -10 -11 -11 -11 -11 -11 -11 -11
-8 -8 -7 -7 -7 -7 -7 -7 -6 -6 -6 -5 -5 -5 -5 -5 -6 -6 -7 -7 -6 -6 -6 -6 -8 -9 -9 -9 -9 -10 -10 -10 -10 -10 -11 -11 -11 -11 -11 -12 -11 -12 -12
-8 -7 -7 -7 -7 -7 -6 -7 -7 -7 -6 -6 -5 -6 -6 -6 -6 -6 -7 -6 -7 -6 -8 -8 -9 -10 -10 -10 -10 -10 -10 -11 -11 -11 -11 -11 -12 -12 -11 -12 -12 -12 -13
-8 -9 -8 -8 -8 -7 -8 -8 -7 -6 -6 -6 -6 -6 -6 -5 -6 -7 -7 -6 -6 -8 -8 -10 -10 -10 -10 -11 -11 -11 -11 -11 -11 -11 -11 -12 -12 -12 -12 -12 -12 -13 -14
-9 -9 -9 -8 -7 -8 -8 -8 -7 -7 -7 -6 -6 -6 -6 -6 -7 -8 -8 -9 -9 -9 -10 -11 -10 -10 -11 -11 -11 -11 -11 -12 -12 -12 -11 -11 -12 -12 -13 -13 -13 -13 -14
-9 -10 -9 -9 -7 -8 -8 -8 -7 -7 -7 -7 -6 -7 -6 -7 -9 -10 -9 -9 -9 -10 -10 -10 -11 -11 -11 -12 -12 -12 -12 -12 -12 -12 -12 -12 -13 -13 -13 -13 -14 -14 -15
-9 -9 -9 -9 -9 -8 -8 -8 -7 -8 -7 -7 -7 -6 -7 -8 -9 -10 -10 -10 -11 -11 -11 -11 -12 -12 -12 -12 -12 -12 -12 -12 -12 -12 -12 -13 -13 -14 -14 -14 -14 -14 -14
Height
3076 3076 3068 3067 3068 3066 3069 3074 3074 3075 3076 3076 3080 3083 3086 3089 3093 3096 3100 3103 3107 3108 3111 3113 3116 3118 3119 3120 3121 3121 3121 3121 3122 3122 3120 3120 3120 3120 3120 3120 3119 3117 3114
3065 3066 3066 3060 3060 3058 3059 3065 3066 3066 3069 3070 3073 3075 3078 3081 3086 3089 3093 3095 3098 3100 3103 3106 3108 3111 3112 3113 3115 3114 3115 3115 3115 3116 3115 3114 3114 3114 3114 3114 3113 3113 3112
3055 3056 3055 3051 3052 3049 3050 3056 3059 3059 3060 3061 3064 3067 3069 3070 3074 3079 3083 3086 3089 3092 3095 3099 3100 3103 3104 3106 3108 3107 3108 3108 3108 3108 3109 3107 3107 3107 3107 3108 3107 3105 3105
3038 3040 3044 3044 3041 3042 3043 3045 3048 3051 3052 3053 3055 3057 3061 3062 3065 3070 3074 3078 3082 3084 3087 3092 3093 3095 3097 3098 3100 3100 3101 3101 3101 3100 3101 3100 3100 3099 3099 3099 3101 3100 3098
3027 3028 3031 3031 3034 3033 3034 3036 3038 3041 3042 3044 3046 3048 3050 3054 3056 3060 3065 3070 3073 3076 3078 3083 3084 3086 3089 3091 3091 3092 3093 3094 3094 3092 3093 3092 3091 3092 3092 3092 3094 3093 3093
3022 3020 3019 3023 3027 3027 3027 3028 3028 3031 3034 3035 3036 3038 3041 3044 3047 3050 3054 3058 3063 3067 3068 3072 3075 3076 3080 3082 3083 3083 3083 3084 3086 3085 3085 3085 3085 3085 3083 3085 3085 3085 3086
3018 3011 3013 3016 3018 3023 3022 3021 3020 3024 3026 3028 3029 3031 3033 3035 3038 3041 3045 3049 3053 3057 3059 3063 3065 3067 3070 3072 3073 3074 3074 3074 3077 3077 3078 3079 3078 3079 3078 3075 3075 3076 3078
3005 3007 3007 3013 3012 3013 3015 3015 3014 3008 3009 3020 3021 3022 3026 3027 3029 3032 3035 3039 3043 3047 3051 3052 3054 3054 3056 3058 3061 3063 3064 3064 3066 3067 3069 3071 3071 3071 3072 3072 3070 3068 3067
3005 3004 3000 3006 3007 3007 3007 3009 3011 3012 3008 3011 3012 3015 3017 3019 3021 3023 3025 3030 3035 3038 3040 3041 3041 3041 3039 3042 3043 3051 3052 3054 3056 3058 3060 3062 3062 3064 3064 3064 3064 3064 3062
3004 3008 3004 2999 2997 3000 2997 2996 3002 3000 3001 3005 3006 3008 3010 3013 3015 3016 3018 3021 3024 3027 3031 3032 3033 3032 3031 3032 3032 3031 3033 3038 3041 3046 3047 3051 3054 3056 3054 3054 3055 3056 3055
3007 3007 3004 3001 2998 2991 2992 2996 3000 2999 2997 2999 3001 3002 3003 3006 3008 3010 3011 3014 3016 3018 3021 3023 3024 3024 3021 3022 3022 3026 3028 3027 3028 3033 3035 3041 3043 3043 3043 3045 3046 3047 3046
3004 3003 3004 3002 2999 2998 2991 2986 2991 2999 2996 2994 2995 2997 2999 3000 3001 3002 3004 3006 3007 3009 3012 3013 3015 3016 3016 3016 3016 3018 3018 3019 3020 3023 3026 3030 3031 3032 3034 3035 3036 3036 3036
3000 2999 2996 2992 2994 2996 2993 2994 2989 2995 2997 2992 2992 2994 2994 2995 2995 2995 2996 2998 2997 2998 2999 3001 3004 3007 3007 3006 3006 3009 3010 3011 3014 3015 3018 3020 3022 3024 3024 3024 3024 3025 3025
2995 2994 2992 2991 2992 2991 2989 2988 2985 2985 2986 2987 2988 2988 2990 2988 2988 2990 2990 2990 2990 2991 2991 2993 2995 2996 2998 2997 2998 3001 3003 3004 3005 3005 3009 3013 3014 3014 3013 3014 3013 3014 3014
2991 2991 2988 2986 2985 2986 2986 2984 2981 2980 2980 2978 2982 2985 2982 2979 2980 2981 2982 2982 2982 2983 2984 2984 2985 2987 2988 2989 2990 2991 2992 2993 2995 2999 3002 3004 3004 3003 3002 3002 3003 3004 3004
2986 2986 2984 2983 2983 2982 2981 2981 2979 2974 2973 2974 2973 2974 2971 2968 2969 2971 2972 2974 2975 2976 2976 2977 2977 2979 2980 2982 2983 2983 2983 2987 2990 2992 2994 2994 2993 2992 2992 2993 2994 2994 2994
2979 2979 2978 2978 2978 2977 2975 2973 2972 2971 2968 2967 2965 2965 2962 2958 2960 2961 2962 2964 2967 2968 2968 2968 2969 2970 2972 2974 2974 2975 2978 2981 2984 2985 2985 2984 2984 2984 2985 2985 2986 2986 2985
2973 2971 2970 2968 2968 2968 2967 2963 2963 2961 2961 2961 2958 2956 2953 2950 2953 2954 2956 2956 2957 2958 2959 2959 2960 2961 2964 2965 2966 2968 2971 2974 2976 2976 2977 2977 2977 2978 2978 2978 2977 2978 2978
2966 2964 2963 2962 2960 2959 2959 2955 2952 2951 2950 2951 2951 2948 2946 2944 2945 2945 2947 2947 2947 2949 2950 2951 2951 2953 2956 2957 2957 2960 2964 2966 2968 2969 2969 2970 2970 2972 2972 2971 2972 2971 2971
2958 2958 2956 2955 2953 2953 2950 2947 2946 2944 2943 2943 2942 2940 2937 2937 2937 2936 2936 2937 2938 2939 2942 2943 2944 2945 2947 2948 2949 2952 2956 2959 2960 2961 2962 2964 2964 2964 2964 2964 2965 2965 2965
2952 2950 2949 2948 2946 2945 2942 2937 2937 2938 2936 2933 2932 2932 2930 2929 2929 2929 2927 2928 2929 2930 2931 2932 2934 2936 2938 2939 2942 2946 2949 2951 2953 2954 2956 2957 2958 2957 2957 2958 2958 2957 2957
2941 2941 2941 2940 2938 2935 2931 2931 2931 2931 2928 2924 2923 2923 2923 2921 2919 2918 2918 2918 2919 2920 2922 2922 2926 2928 2929 2931 2936 2940 2943 2945 2948 2949 2951 2951 2951 2950 2951 2951 2951 2950 2948
2928 2929 2931 2928 2927 2925 2924 2924 2925 2922 2918 2915 2914 2912 2910 2909 2906 2905 2906 2907 2908 2911 2913 2915 2918 2921 2923 2928 2932 2935 2938 2941 2942 2944 2945 2946 2946 2945 2944 2944 2943 2941 2940
2915 2916 2918 2918 2916 2917 2916 2916 2914 2911 2908 2906 2905 2903 2900 2898 2894 2893 2897 2900 2902 2904 2906 2909 2913 2917 2921 2925 2927 2930 2933 2935 2936 2937 2939 2940 2939 2939 2938 2937 2935 2933 2931
2906 2904 2907 2906 2909 2908 2909 2907 2904 2901 2899 2897 2896 2895 2892 2889 2886 2888 2890 2893 2895 2899 2903 2907 2911 2916 2920 2923 2924 2926 2928 2930 2932 2933 2933 2932 2932 2932 2931 2929 2926 2924 2922
2896 2893 2895 2898 2901 2902 2900 2898 2896 2893 2891 2891 2891 2888 2885 2883 2881 2883 2886 2889 2893 2897 2901 2905 2910 2913 2916 2919 2921 2923 2924 2926 2926 2927 2927 2926 2924 2923 2922 2920 2918 2914 2911
Wind_Speed
35 40 42 37 42 46 44 35 34 39 38 40 40 43 43 45 43 42 39 38 35 33 31 30 30 29 28 28 28 28 26 26 25 24 24 24 25 24 24 21 21 22 24
37 34 34 39 40 43 45 35 38 38 38 35 36 41 41 43 44 43 42 40 37 37 36 32 32 31 31 31 30 30 29 29 28 25 27 27 26 25 25 23 23 23 21
42 40 39 46 44 47 46 42 39 36 34 36 37 35 39 44 44 44 43 43 40 39 37 34 35 35 33 32 31 32 32 30 30 29 28 29 28 27 27 26 25 24 23
42 41 37 43 41 45 45 44 40 36 35 36 39 39 39 43 43 43 45 43 41 40 39 36 37 36 34 34 34 33 33 33 32 32 31 31 31 31 31 28 24 24 23
32 35 41 44 41 39 43 43 40 37 35 34 36 40 38 36 39 41 40 40 40 41 40 38 38 38 36 36 37 35 35 35 34 35 33 33 34 33 31 30 27 27 23
22 24 33 41 36 34 39 40 43 39 33 29 30 36 38 37 38 37 39 41 42 41 40 40 40 39 39 38 39 37 37 36 36 36 35 34 33 32 33 31 29 28 26
8 13 10 30 36 31 36 36 40 39 29 24 27 29 31 32 34 36 37 38 40 41 42 39 37 38 39 41 41 40 39 39 38 36 35 35 34 33 32 34 33 31 29
6 10 3 17 33 41 32 34 34 43 23 23 28 31 32 33 33 34 35 35 36 36 35 35 42 47 49 43 43 42 42 40 40 38 37 35 35 35 34 32 32 31 31
4 8 10 5 21 24 25 35 27 38 23 23 25 27 30 32 33 34 36 34 36 37 37 36 42 49 50 44 46 44 43 43 40 40 37 35 36 36 33 29 31 30 31
9 7 3 2 6 7 3 10 22 16 24 25 24 21 27 27 30 35 34 33 34 37 38 38 42 46 49 48 51 50 52 50 38 43 41 39 37 35 37 40 36 41 32
32 32 31 22 16 1 8 5 9 15 17 16 17 16 17 19 21 23 25 24 25 26 27 34 40 45 44 44 44 42 46 43 51 51 44 38 39 41 41 44 40 44 38
35 27 22 18 21 26 43 17 8 15 16 18 17 15 16 22 19 20 20 24 26 27 29 30 32 36 40 40 42 38 35 42 48 47 41 39 40 42 46 47 50 45 36
32 26 21 19 14 18 25 24 20 17 17 22 25 24 21 19 19 21 21 28 36 37 37 36 35 37 38 41 40 35 29 34 39 38 36 40 45 48 52 52 50 42 39
26 27 18 15 17 20 22 18 16 13 19 22 20 26 24 23 21 23 27 29 31 33 33 31 30 31 35 39 39 35 34 34 34 30 37 44 47 48 50 49 46 39 34
23 22 20 17 19 17 21 25 23 20 21 26 27 26 24 25 27 28 28 26 30 32 31 31 31 30 33 36 37 37 37 34 32 37 40 44 45 45 48 43 34 36 34
18 18 23 22 20 19 15 22 28 23 18 28 30 25 28 27 27 28 27 25 25 23 23 26 27 27 30 33 35 37 38 36 37 36 36 38 40 43 33 32 33 33 35
24 28 27 26 29 28 26 21 21 27 28 33 33 33 28 26 25 23 24 23 23 21 20 22 24 25 26 28 32 38 37 34 33 33 34 38 36 30 30 30 32 32 27
27 30 35 30 31 34 33 20 20 24 30 30 29 31 32 30 29 28 26 24 24 23 22 22 24 24 25 28 30 31 29 27 29 32 35 34 28 26 26 28 27 25 23
27 27 27 25 26 29 27 30 28 26 30 31 25 26 28 31 31 31 29 25 25 23 23 24 26 25 28 28 26 24 22 24 31 32 26 25 23 23 26 25 24 20 22
29 26 19 25 28 33 26 29 30 27 24 26 28 28 28 30 32 32 31 30 24 26 26 25 25 25 26 31 22 21 24 29 26 24 24 22 22 21 23 20 20 22 24
29 26 27 25 27 27 28 30 30 26 31 28 28 27 30 32 33 33 34 34 31 28 27 26 25 25 29 22 20 24 25 24 23 22 22 20 19 21 18 21 22 24 26
40 39 35 31 28 30 29 28 35 34 32 32 32 31 30 33 37 38 37 35 29 31 31 26 25 28 23 22 23 22 22 21 20 19 16 18 16 19 22 22 24 26 27
45 37 31 27 29 35 30 37 34 31 39 34 31 31 29 30 34 37 30 34 32 28 29 25 23 23 20 21 21 20 17 17 14 14 15 15 19 22 23 24 26 26 26
35 32 30 34 37 38 30 35 31 31 32 29 29 28 27 28 29 24 23 21 24 26 22 18 19 17 18 18 16 13 13 12 14 16 17 17 19 22 23 24 25 26 28
32 30 32 34 28 23 29 27 25 27 26 24 27 23 27 24 18 21 23 23 20 17 15 15 12 11 13 13 12 12 13 14 15 17 18 20 21 21 23 24 26 27 28
28 21 15 19 23 24 23 22 25 28 23 23 20 18 19 14 13 16 19 23 21 20 18 15 13 14 15 13 12 12 12 14 16 17 18 20 22 23 24 26 29 32 35
Wind_Direction
256 248 264 265 267 272 268 270 272 256 245 241 236 240 244 246 245 241 239 241 244 247 250 252 257 254 258 259 260 261 264 267 269 269 272 272 272 273 275 279 286 294 297
265 260 264 263 259 268 270 267 273 271 254 248 245 241 243 247 251 248 243 241 242 246 249 252 254 255 255 258 261 262 263 265 268 267 267 271 272 273 274 277 280 283 286
263 261 255 257 258 261 265 269 273 278 262 248 247 248 240 242 242 243 246 242 242 245 250 253 252 254 256 258 258 260 263 264 266 267 268 269 270 270 268 266 272 281 283
248 245 243 248 253 253 263 264 264 268 272 255 251 250 252 250 247 243 244 244 242 245 250 252 254 257 259 257 256 259 261 262 265 265 265 265 264 262 264 266 269 276 285
241 246 232 240 253 249 250 257 256 256 261 266 259 252 253 253 253 250 248 248 247 246 249 251 254 257 258 257 257 257 259 261 262 263 263 262 265 266 266 269 273 276 279
236 229 227 236 244 245 248 250 253 253 258 263 264 252 251 250 255 252 245 244 246 247 247 250 251 254 255 256 256 256 256 258 258 260 262 263 265 269 272 272 271 272 273
351 249 235 230 238 238 247 252 252 252 249 255 269 264 260 258 256 252 248 247 247 247 249 252 251 260 261 257 254 254 251 257 256 255 257 259 261 262 264 269 272 275 276
112 59 68 208 227 232 236 248 251 263 232 259 269 267 259 262 257 255 248 249 250 252 257 256 249 246 247 249 247 248 247 251 254 254 255 257 258 259 258 258 268 276 280
103 74 99 198 205 216 222 237 257 245 270 269 266 256 258 260 260 264 263 252 256 254 255 256 250 245 240 239 240 243 243 244 250 254 254 257 260 260 256 253 256 260 265
250 241 11 110 139 219 274 271 249 257 272 260 264 256 253 253 261 265 264 260 254 251 252 257 258 256 253 252 247 240 235 237 244 246 248 253 259 253 252 253 253 267 256
326 328 327 313 251 174 9 335 286 271 263 264 263 246 240 234 241 260 271 272 270 275 266 259 263 269 270 257 264 262 252 249 242 243 244 252 249 255 251 261 264 266 253
332 334 330 322 315 292 257 219 287 302 285 279 258 255 239 241 239 240 251 272 279 277 273 269 268 269 273 277 273 267 269 268 249 249 249 249 253 251 259 263 272 262 260
322 325 327 339 319 275 277 287 268 279 290 287 282 275 270 261 260 260 266 262 261 265 265 261 260 262 265 266 270 271 271 266 259 253 250 249 254 267 267 272 281 260 257
314 321 306 320 324 312 308 308 302 276 265 260 274 272 276 273 266 260 256 255 268 272 273 273 270 266 270 270 270 271 265 263 260 256 247 250 267 279 275 278 275 257 256
314 307 295 303 300 300 287 286 272 277 265 245 247 263 268 270 269 262 258 258 262 269 274 278 277 273 268 269 270 268 267 264 257 252 258 264 275 280 278 276 255 260 261
293 279 268 278 293 275 264 270 275 279 285 262 256 275 261 258 267 268 265 265 269 273 277 277 276 277 273 273 274 268 263 257 260 268 273 278 285 284 262 255 260 261 269
284 271 276 280 275 271 258 258 269 265 273 278 277 274 284 285 285 280 277 273 270 267 268 271 274 274 274 275 273 268 267 268 268 274 281 281 276 261 260 262 269 271 265
279 280 280 277 274 276 261 247 262 264 267 274 277 275 277 278 281 287 285 283 280 274 268 266 272 271 277 278 278 272 265 265 271 275 272 273 268 265 267 269 263 255 266
275 270 274 271 280 279 294 276 263 257 267 276 280 273 275 277 279 276 283 278 276 269 271 268 268 279 283 282 276 262 256 266 265 270 267 265 265 268 267 261 263 270 267
295 292 310 295 298 301 293 301 283 270 285 289 277 281 277 274 277 283 283 285 275 266 267 262 268 267 269 267 251 244 252 255 262 261 259 258 262 259 256 264 267 268 271
279 284 287 283 296 290 283 286 287 269 296 293 285 278 273 274 274 272 277 277 273 272 258 250 252 256 253 243 233 245 250 257 254 254 259 261 258 257 264 264 267 271 275
285 275 284 281 286 285 276 282 290 294 291 279 273 278 273 267 274 268 276 264 268 260 251 245 238 241 229 222 235 242 249 249 251 255 256 263 263 270 269 273 276 279 281
282 282 274 268 281 265 274 276 285 277 285 282 274 274 274 278 279 270 266 259 252 244 249 231 228 222 213 226 234 240 242 247 246 254 258 263 261 268 276 279 281 284 286
281 277 258 265 264 269 282 285 287 279 281 275 276 273 272 280 288 248 235 233 234 242 231 218 211 207 216 230 229 232 228 237 255 262 264 269 275 276 278 282 287 290 292
285 269 256 257 262 270 283 283 287 295 282 278 278 284 292 285 247 222 228 234 230 202 184 184 187 205 212 218 213 216 235 249 257 268 277 280 280 282 287 291 293 295 294
286 281 240 265 270 280 284 283 290 305 280 277 285 288 285 275 242 221 198 175 165 165 165 166 179 191 190 200 221 235 250 261 272 278 279 282 288 294 299 301 299 300 302